Location: Le Castellard
(44.1862°N, 6.1301°E)
Time: 11:27:17
(UTC+00:00)

Cosmos 2082 - Pass Details

Date: 18 January 2020
Orbit: 833 x 856 km, 71.0° (Epoch: 18 February)

Event Time Altitude Azimuth Distance (km) Brightness Sun altitude
Exits shadow 05:48:58 17° 308° (NW) 2,031 5.1 -13.7°
Maximum altitude 05:52:31 32° 256° (WSW) 1,420 4.4 -13.0°
Drops below altitude 10° 05:57:29 10° 195° (SSW) 2,474 6.2 -12.2°
Sets 06:00:09 0° 185° (S) 3,408 7.0 -11.7°
